STARLINK-1289 (45391 NORAD) Tracking and Keplerian Element Data

This shows tracking and keplerian element data for the satellite.

Feedback or suggestion? Click here.




ElementValue
Catalog45391
NameSTARLINK-1289
Epoch Orbit1148
Epoch Day149.41668981
Epoch Year2020
RAAN267.4725
Inclination53.0006
Eccentricity0.000314
Argument of Perigee340.0966
Mean Anonmoly274.9344
Mean Motion15.48264002
Decay Rate0.04242495
L11 45391U 20019AH 20149.41668981 .04242495 00000-0 68121-1 0 9992
L22 45391 53.0006 267.4725 0003140 340.0966 274.9344 15.48264002 11486

Live tracking and technical data element details for STARLINK-1289 (NORAD 45391). STARLINK-1289 can be tracked NOW for your location showing map with azimuth and elevation plus other details from your city location.

Track the satellite on the map from your city or location and see movement details for azimuth, elevation, latitude, longitude, range, height, and movement on the map or in text.







IsCatalogInMostPopularTable: catalog: 45391, numindb: 18
Update: records affected: 1



GetName: 45391 STARLINK-1289

Hit Count: updated at: Sat, 30 May 2020 15:55:38 GMT